This demonstration page uses our WeatherBlox Daily Observations layout. Learn more.

Left ArrowRight Arrow

44.89941, -97.11507

Hourly Observations for January 20, 2016

Temp ( °F °C ) Dew Point ( °F °C ) Humidity (%) Winds ( mph kmh ) Pressure ( in mb ) Visibility ( mi km ) Precip ( " mm )
12:30 am 00:30 Cloudy 18 -7.8 14 -10 84 84 S 13 20 30.18 1022 8 13 0.00 0.00
12:53 am 00:53 Cloudy 18 -7.8 14 -10 84 84 S 12 19 30.13 1020 7 11 0.00 0.00
1:53 am 01:53 Cloudy 19 -7.2 15 -9.4 84 84 S 9 15 30.11 1020 7 11 0.00 0.00
2:53 am 02:53 Cloudy 20 -6.7 16 -8.9 85 85 S 10 17 30.09 1019 7 11 0.00 0.00
3:53 am 03:53 Cloudy with Mist and Fog 21 -6.1 17 -8.3 85 85 S 13 20 30.08 1019 6 10 0.00 0.00
4:53 am 04:53 Cloudy with Mist and Fog 21 -6.1 18 -7.8 88 88 S 13 20 30.07 1018 5 8 0.00 0.00
5:53 am 05:53 Cloudy with Mist and Fog 22 -5.6 19 -7.2 89 89 S 12 19 30.05 1018 5 8 0.00 0.00
6:48 am 06:48 Cloudy with Mist and Fog 21 -6 19 -7 93 93 S 15 24 30.12 1020 3 4 0.00 0.00
6:53 am 06:53 Cloudy with Mist and Fog 22 -5.6 20 -6.7 92 92 S 15 24 30.05 1018 2 3 0.00 0.00
7:29 am 07:29 Cloudy with Mist and Fog 22 -5.6 19 -7.2 89 89 S 15 24 30.12 1020 3 5 0.00 0.00
7:38 am 07:38 Cloudy with Mist and Fog 22 -5.6 19 -7.2 89 89 S 13 20 30.12 1020 3 5 0.00 0.00
7:53 am 07:53 Cloudy with Mist and Fog 22 -5.6 19 -7.2 89 89 S 15 24 30.04 1017 4 6 0.00 0.00
8:10 am 08:10 Cloudy with Mist and Fog 22 -5.6 19 -7.2 89 89 S 15 24 30.12 1020 2 3 0.00 0.00
8:17 am 08:17 Cloudy with Mist and Fog 22 -5.6 19 -7.2 89 89 S 12 19 30.12 1020 2 3 0.00 0.00
8:33 am 08:33 Cloudy with Mist and Fog 22 -5.6 19 -7.2 89 89 S 14 22 30.12 1020 3 4 0.00 0.00
8:49 am 08:49 Cloudy with Mist and Fog 21 -6 19 -7 93 93 S 12 19 30.12 1020 2 2 0.00 0.00
8:53 am 08:53 Cloudy with Mist and Fog 22 -5.6 19 -7.2 89 89 S 15 24 30.05 1018 2 2 0.00 0.00
9:03 am 09:03 Cloudy with Mist and Fog 22 -5.6 19 -7.2 89 89 S 12 19 30.12 1020 3 4 0.00 0.00
9:23 am 09:23 Cloudy with Mist and Fog 22 -5.6 19 -7.2 89 89 SSE 10 17 30.12 1020 3 5 0.00 0.00
9:42 am 09:42 Cloudy with Mist and Fog 23 -5 20 -6.7 88 88 S 14 22 30.09 1019 3 5 0.00 0.00
9:53 am 09:53 Cloudy with Mist and Fog 23 -5 20 -6.7 88 88 S 14 22 30.04 1017 3 5 0.00 0.00
10:12 am 10:12 Cloudy with Mist and Fog 25 -3.9 21 -6.1 85 85 undefined N/A 30.09 1019 3 5 0.00 0.00
10:19 am 10:19 Cloudy with Haze 25 -3.9 20 -6.7 81 81 S 16 26 30.09 1019 2 3 0.00 0.00
10:32 am 10:32 Cloudy with Mist and Fog 23 -5 20 -6.7 88 88 S 15 24 30.09 1019 3 5 0.00 0.00
10:53 am 10:53 Cloudy with Mist and Fog 24 -4.4 20 -6.7 84 84 S 16 26 30.06 1018 2 3 0.00 0.00
11:19 am 11:19 Cloudy with Mist and Fog 23 -5 19 -7.2 85 85 S 15 24 30.09 1019 4 6 0.00 0.00
11:53 am 11:53 Cloudy with Haze 23 -5 18 -7.8 81 81 S 16 26 30.04 1017 6 10 0.00 0.00
12:23 pm 12:23 Partly Cloudy 24 -4.4 19 -7.2 81 81 S 16 26 30.06 1018 7 11 0.00 0.00
12:53 pm 12:53 Sunny 25 -3.9 20 -6.7 81 81 SSE 14 22 30.00 1016 8 13 0.00 0.00
1:49 pm 13:49 Partly Cloudy 27 -3 21 -6 80 80 S 14 22 30.03 1017 8 13 0.00 0.00
1:53 pm 13:53 Partly Cloudy 26 -3.3 22 -5.6 84 84 S 12 19 29.99 1016 8 13 0.00 0.00
2:00 pm 14:00 Mostly Cloudy 26 -3.3 21 -6.1 81 81 SSE 14 22 30.03 1017 7 11 0.00 0.00
2:53 pm 14:53 Cloudy with Mist and Fog 26 -3.3 22 -5.6 84 84 S 14 22 30.00 1016 5 8 0.00 0.00
3:53 pm 15:53 Cloudy with Mist and Fog 26 -3.3 22 -5.6 84 84 SE 9 15 30.01 1016 4 6 0.00 0.00
4:53 pm 16:53 Cloudy 26 -3.3 22 -5.6 84 84 SSE 10 17 30.04 1017 7 11 0.00 0.00
5:53 pm 17:53 Cloudy with Mist and Fog 25 -3.9 22 -5.6 88 88 SE 8 13 30.06 1018 6 10 0.00 0.00
6:30 pm 18:30 Cloudy with Mist and Fog 24 -4.4 21 -6.1 88 88 S 9 15 30.09 1019 5 8 0.00 0.00
6:53 pm 18:53 Cloudy with Mist and Fog 24 -4.4 21 -6.1 88 88 SSE 10 17 30.09 1019 6 10 0.00 0.00
7:53 pm 19:53 Cloudy with Mist and Fog 24 -4.4 21 -6.1 88 88 SSE 8 13 30.11 1020 6 10 0.00 0.00
8:53 pm 20:53 Cloudy with Mist and Fog 23 -5 21 -6.1 92 92 SSE 5 7 30.13 1020 5 8 0.00 0.00
9:53 pm 21:53 undefined 23 -5 20 -6.7 88 88 S 3 6 30.16 1021 N/A 0.00 0.00
10:23 pm 22:23 Cloudy with Mist and Fog 23 -5 21 -6.1 92 92 Calm 30.21 1023 5 8 0.00 0.00
10:53 pm 22:53 Cloudy with Mist and Fog 23 -5 20 -6.7 88 88 Calm 30.17 1022 5 8 0.00 0.00
11:53 pm 23:53 Cloudy with Mist and Fog 24 -4.4 20 -6.7 84 84 Calm 30.20 1023 4 6 0.00 0.00

Powered by AerisWeather